TimeGMT,TemperatureF,Dew PointF,Humidity,Sea Level PressureIn,VisibilityMPH,Wind Direction,Wind SpeedMPH,Gust SpeedMPH,PrecipitationIn,Events,Conditions,WindDirDegrees,DateUTC
12:20 AM,33.8,32.0,93,29.30,1.4,East,10.4,-,N/A,Snow,Light Snow,80,2013-02-11 00:20:00
12:50 AM,33.8,32.0,93,29.30,1.9,East,10.4,-,N/A,Snow,Light Snow,80,2013-02-11 00:50:00
1:20 AM,33.8,32.0,93,29.30,1.9,East,9.2,-,N/A,Snow,Light Snow,80,2013-02-11 01:20:00
1:50 AM,33.8,32.0,93,29.30,1.2,East,9.2,-,N/A,Snow,Light Snow,80,2013-02-11 01:50:00
2:20 AM,33.8,32.0,93,29.33,1.9,East,10.4,-,N/A,Snow,Light Snow,80,2013-02-11 02:20:00
2:50 AM,33,32,95,29.33,2,ENE,6.9,,,Snow,Light Snow,70,2013-02-11 02:50:00
2:50 AM,33.8,32.0,93,29.33,-9999.0,East,9.2,-,N/A,Snow,Light Snow,80,2013-02-11 02:50:00
3:20 AM,32.0,32.0,100,29.33,-9999.0,East,9.2,-,N/A,Snow,Light Snow,80,2013-02-11 03:20:00
3:50 AM,33.8,32.0,93,29.33,-9999.0,ENE,8.1,-,N/A,Snow,Light Snow,70,2013-02-11 03:50:00
4:20 AM,33.8,32.0,93,29.36,2.5,ENE,6.9,-,N/A,Snow,Light Snow,70,2013-02-11 04:20:00
4:50 AM,33.8,32.0,93,29.36,1.6,ENE,6.9,-,N/A,Snow,Light Snow,60,2013-02-11 04:50:00
5:20 AM,33.8,32.0,93,29.36,1.6,ENE,8.1,-,N/A,Snow,Light Snow,60,2013-02-11 05:20:00
5:50 AM,34,33,93,29.38,4,NE,8.1,,,Snow,Snow,50,2013-02-11 05:50:00
5:50 AM,33.8,32.0,93,29.36,3.1,ENE,9.2,-,N/A,,Mostly Cloudy,60,2013-02-11 05:50:00
6:20 AM,33.8,32.0,93,29.39,5.0,ENE,8.1,-,N/A,,Overcast,60,2013-02-11 06:20:00
6:50 AM,33.8,32.0,93,29.39,5.0,ENE,8.1,-,N/A,,Mostly Cloudy,60,2013-02-11 06:50:00
7:20 AM,33.8,32.0,93,29.42,3.1,ENE,6.9,-,N/A,Rain-Snow,Light Rain,60,2013-02-11 07:20:00
7:50 AM,33.8,32.0,93,29.42,3.7,ENE,6.9,-,N/A,Rain-Snow,Light Rain,60,2013-02-11 07:50:00
8:20 AM,33.8,32.0,93,29.44,3.1,ENE,6.9,-,N/A,Rain-Snow,Light Rain,60,2013-02-11 08:20:00
8:50 AM,34,33,93,29.45,2,NE,6.9,,,Snow,Light Snow,40,2013-02-11 08:50:00
8:50 AM,33.8,32.0,93,29.44,2.2,NE,5.8,-,N/A,Snow,Light Snow,50,2013-02-11 08:50:00
9:20 AM,33.8,32.0,93,29.44,2.2,NE,4.6,-,N/A,Snow,Light Snow,50,2013-02-11 09:20:00
9:50 AM,33.8,32.0,93,29.47,2.8,NE,5.8,-,N/A,Rain-Snow,Light Rain,50,2013-02-11 09:50:00
10:20 AM,33.8,32.0,93,29.47,3.1,NE,5.8,-,N/A,Rain-Snow,Light Rain,50,2013-02-11 10:20:00
10:50 AM,33.8,32.0,93,29.47,2.2,NE,5.8,-,N/A,Snow,Light Snow,40,2013-02-11 10:50:00
11:20 AM,33.8,32.0,93,29.50,3.7,NE,6.9,-,N/A,Snow,Light Snow,40,2013-02-11 11:20:00
11:50 AM,34,33,93,29.52,2,NE,9.2,,,Snow,Light Snow,40,2013-02-11 11:50:00
11:50 AM,35.6,32.0,87,29.50,2.5,NE,8.1,-,N/A,Snow,Light Snow,50,2013-02-11 11:50:00
12:20 PM,33.8,33.8,100,29.53,-9999.0,NE,8.1,-,N/A,Rain-Snow,Light Rain,40,2013-02-11 12:20:00
12:50 PM,35.6,33.8,93,29.53,-9999.0,NE,8.1,-,N/A,Snow,Snow,40,2013-02-11 12:50:00
1:20 PM,35.6,33.8,93,29.53,5.0,NE,8.1,-,N/A,Rain-Snow,Light Rain,40,2013-02-11 13:20:00
1:50 PM,35.6,33.8,93,29.56,5.0,NNE,8.1,-,N/A,,Mostly Cloudy,30,2013-02-11 13:50:00
2:20 PM,35.6,32.0,87,29.56,4.3,NNE,8.1,-,N/A,,Mostly Cloudy,30,2013-02-11 14:20:00
2:50 PM,35,33,91,29.58,4,NNE,9.2,,,,Unknown Precipitation,30,2013-02-11 14:50:00
2:50 PM,35.6,32.0,87,29.56,3.7,NE,8.1,-,N/A,Rain,Light Rain,40,2013-02-11 14:50:00
3:20 PM,35.6,32.0,87,29.59,3.1,NNE,8.1,-,N/A,Rain,Light Rain,30,2013-02-11 15:20:00
3:50 PM,35.6,32.0,87,29.59,3.1,NNE,5.8,-,N/A,Rain,Light Rain,20,2013-02-11 15:50:00
4:20 PM,33.8,32.0,93,29.59,-9999.0,NNE,6.9,-,N/A,Rain,Rain,30,2013-02-11 16:20:00
4:50 PM,33.8,32.0,93,29.62,-9999.0,NNE,6.9,-,N/A,Rain-Snow,Light Rain,20,2013-02-11 16:50:00
5:20 PM,33.8,32.0,93,29.62,3.7,NNE,8.1,-,N/A,Rain,Light Rain,30,2013-02-11 17:20:00
5:50 PM,34,32,90,29.65,4,NNE,8.1,,,Rain,Rain,30,2013-02-11 17:50:00
5:50 PM,33.8,32.0,93,29.65,3.1,NNE,6.9,-,N/A,,Mostly Cloudy,30,2013-02-11 17:50:00
6:20 PM,33.8,32.0,93,29.65,3.1,NNE,6.9,-,N/A,,Haze,30,2013-02-11 18:20:00
6:50 PM,33.8,32.0,93,29.68,3.1,NE,6.9,-,N/A,,Haze,50,2013-02-11 18:50:00
7:20 PM,33.8,32.0,93,29.68,3.1,NNE,6.9,-,N/A,,Haze,30,2013-02-11 19:20:00
7:50 PM,33.8,32.0,93,29.68,3.1,NNE,4.6,-,N/A,,Haze,30,2013-02-11 19:50:00
8:20 PM,33.8,32.0,93,29.71,3.1,NNE,5.8,-,N/A,,Haze,20,2013-02-11 20:20:00
8:50 PM,34,32,90,29.72,3,NNE,6.9,,,,Unknown Precipitation,20,2013-02-11 20:50:00
8:50 PM,33.8,32.0,93,29.71,-9999.0,NNE,5.8,-,N/A,,Haze,20,2013-02-11 20:50:00
9:20 PM,33.8,32.0,93,29.71,-9999.0,North,5.8,-,N/A,,Haze,10,2013-02-11 21:20:00
9:50 PM,33.8,32.0,93,29.74,-9999.0,NNE,6.9,-,N/A,,Mostly Cloudy,20,2013-02-11 21:50:00
10:50 PM,33.8,32.0,93,29.77,-9999.0,NNE,6.9,-,N/A,,Haze,30,2013-02-11 22:50:00
11:20 PM,33.8,32.0,93,29.77,-9999.0,NNE,6.9,-,N/A,,Haze,20,2013-02-11 23:20:00
11:50 PM,34,32,91,29.79,3,NNE,6.9,,,,Light Haze,30,2013-02-11 23:50:00
11:50 PM,33.8,32.0,93,29.77,-9999.0,NE,6.9,-,N/A,,Haze,40,2013-02-11 23:50:00